Flag for Switzerland Weather past 2 weeks in Lugano, Switzerland

Now
36 °F

Clear.


Feels Like: 36 °F
Forecast: 25 / 49 °F
Wind: 2 mph from North

Location: Lugano Airport

Current Time: Dec 22, 2014 at 10:01:05 PM

Latest Report: Dec 22, 2014 at 9:20 PM


Visibility: 10 mi

Pressure: 30.39 "Hg

Humidity: 87%

Dew point: 32 °F

Location of LuganoLocation

Historic Weather in Lugano — Graph

°F

Lugano temperature yesterday

Maximum temperature yesterday: 55 °F (at 12:20 PM)
Minimum temperature yesterday: 32 °F (at 12:20 AM)
Average temperature yesterday: 46 °F

Past Weeks' High & Low Weather Summary

 TemperatureHumidityPressure
High57 °F (Dec 20, 2:50 PM)100% (Dec 7, 8:20 PM)30.48 "Hg (Dec 7, 8:20 PM)
Low27 °F (Dec 11, 6:20 AM)26% (Dec 9, 2:50 PM)29.83 "Hg (Dec 16, 3:50 PM)
Average41 °F84%30.12 "Hg
* Reported Dec 7 8:20 PM — Dec 22 8:50 PM, Lugano, Weather by CustomWeather, © 2014

Note: Actual official high and low records may vary slightly from our data, if they occured in-between our weather recording intervals... More about our weather records

Advertising

Lugano weather history for previous 24 hours

 ConditionsComfort  
Time TempWeatherWind HumidityBarometerVisibility
8:50 PM
Dec 22
36 °FClear.3 mph87%30.36 "Hg10 mi
8:20 PM37 °FClear.1 mph87%30.36 "Hg10 mi
7:50 PM37 °FClear.1 mph87%30.36 "Hg10 mi
7:20 PM39 °FClear.1 mph87%30.36 "Hg10 mi
6:50 PM39 °FClear.2 mph81%30.36 "Hg10 mi
6:20 PM41 °FClear.1 mph76%30.36 "Hg10 mi
5:50 PM45 °FClear.2 mph71%30.33 "Hg10 mi
5:20 PM45 °FClear.1 mph66%30.33 "Hg10 mi
4:50 PM46 °FClear.2 mph66%30.33 "Hg10 mi
4:20 PM52 °FSunny.2 mph44%30.33 "Hg10 mi
3:50 PM54 °FSunny.2 mph41%30.33 "Hg10 mi
3:20 PM54 °FSunny.1 mph35%30.33 "Hg10 mi
2:50 PM54 °FSunny.1 mph33%30.33 "Hg10 mi
2:20 PM52 °FSunny.3 mph41%30.33 "Hg10 mi
1:50 PM50 °FSunny.5 mph50%30.36 "Hg10 mi
1:20 PM48 °FSunny.3 mph54%30.36 "Hg10 mi
12:50 PM48 °FPassing clouds.3 mph54%30.39 "HgN/A
12:20 PM48 °FSunny.1 mph50%30.39 "Hg10 mi
11:50 AM45 °FSunny.3 mph57%30.39 "Hg10 mi
11:20 AM43 °FSunny.1 mph57%30.42 "Hg10 mi
10:50 AM41 °FSunny.2 mph61%30.42 "Hg10 mi
10:20 AM36 °FSunny.1 mph87%30.42 "Hg10 mi
9:50 AM34 °FSunny.2 mph87%30.42 "Hg10 mi
9:20 AM32 °FSunny.2 mph93%30.42 "Hg10 mi
8:50 AM28 °FSunny.2 mph86%30.42 "Hg10 mi
8:20 AM28 °FSunny.2 mph93%30.42 "Hg10 mi
7:50 AM30 °FClear.3 mph93%30.42 "Hg10 mi
7:20 AM30 °FClear.1 mph93%30.39 "Hg10 mi
6:20 AM30 °FClear.2 mph100%30.39 "Hg10 mi
5:50 AM32 °FChilly.2 mph93%30.39 "HgN/A
5:20 AM30 °FClear.2 mph93%30.42 "Hg10 mi
4:50 AM30 °FClear.3 mph93%30.42 "Hg10 mi
4:20 AM30 °FClear.3 mph93%30.42 "Hg10 mi
3:50 AM28 °FChilly.2 mph93%30.42 "HgN/A
3:20 AM32 °FClear.2 mph93%30.45 "Hg10 mi
2:50 AM32 °FClear.2 mph87%30.45 "Hg10 mi
2:20 AM32 °FClear.1 mph93%30.45 "Hg10 mi
1:20 AM32 °FClear.3 mph87%30.45 "Hg10 mi
12:50 AM32 °FClear.2 mph93%30.45 "Hg10 mi
12:20 AM32 °FClear.3 mph93%30.48 "Hg10 mi
11:50 PM
Dec 21
34 °FClear.1 mph87%30.48 "Hg10 mi
11:20 PM34 °FClear.3 mph93%30.48 "Hg10 mi
10:20 PM36 °FClear.1 mph93%30.48 "Hg10 mi
Weather by CustomWeather, © 2014

See weather overviewHow to use our weather pages